Regional Weather Roundup
Issued by NWS Jackson, KY

Home | Current Version | Previous Version | Text Only | Print | Product List | Glossary On
Versions: 1 2 3 4 5 6 7 8 9 10 11 12 13 14 15 16 17 18 19 20 21 22 23 24 25 26 27 28 29 30 31 32 33 34 35 36 37 38 39 40 41 42 43 44 45 46 47 48 49 50
000
ASUS43 KJKL 171619
RWRJKL

EAST KENTUCKY HOURLY WEATHER ROUNDUP
NATIONAL WEATHER SERVICE JACKSON KY
1200 PM EDT WED SEP 17 2014

NOTE: "FAIR" INDICATES FEW OR NO CLOUDS BELOW 12,000 FEET WITH
NO SIGNIFICANT WEATHER AND/OR OBSTRUCTIONS TO VISIBILITY.

* THESE REPORTS ARE NOT UNDER NWS QUALITY CONTROL AND MAY NOT
  REPORT WEATHER SUCH AS PRECIPITATION AND FOG.

KYZ079-080-083-085-087-088-110-112-115-119-120-171700
...EASTERN KENTUCKY...

CITY           SKY/WX    TMP DP  RH WIND       PRES   REMARKS
JACKSON        MOSUNNY   62  53  72 CALM      30.03F
LONDON         CLOUDY    65  53  65 CALM      30.03S
MONTICELLO*    MOSUNNY   67  53  60 VRB6      30.05S
WILLIAMSBURG*  MOSUNNY   64  55  72 CALM      30.02F
MIDDLESBORO*   MOSUNNY   67  56  66 CALM      30.01F
HARLAN APT*    SUNNY     68  54  60 MISG      30.01F
BLACK MTN*       N/A     61  52  72 S2          N/A
BIG SANDY*     CLOUDY    60  57  89 CALM      30.04F
MOREHEAD APT*  PTSUNNY   66  54  63 CALM      30.06S
$$

KYZ035-036-041-042-044-050-067-078-099-171700
...CENTRAL KENTUCKY...

CITY           SKY/WX    TMP DP  RH WIND       PRES   REMARKS
MT STERLING*   SUNNY     63  54  72 CALM      30.06S
FLEMING/MASON* MOSUNNY   64  52  63 CALM      30.06S
DANVILLE*      PTSUNNY   61  54  77 CALM      30.06F
RICHMOND*      MOSUNNY   64  52  63 CALM      30.03F
LEXINGTON      PTSUNNY   66  52  60 CALM      30.05S
FRANKFORT      SUNNY     64  54  69 VRB5      30.05S
$$

KYZ091>093-OHZ055-061-077-WVZ005-015-034-035-042-171700
...SOUTHERN OHIO/WEST VIRGINIA...

CITY           SKY/WX    TMP DP  RH WIND       PRES   REMARKS
COVINGTON      CLOUDY    61  50  67 CALM      30.06F
COLUMBUS       CLOUDY    66  49  54 CALM      30.04F
DAYTON         CLOUDY    61  51  70 CALM      30.07F
WILMINGTON     CLOUDY    60  49  66 CALM      30.06F
HUNTINGTON     MOSUNNY   64  55  72 CALM      30.02F
CHARLESTON     CLOUDY    60  56  86 VRB7      30.03F
PINEVILLE*     CLOUDY    67  60  78 MISG      30.08F
BECKLEY        PTSUNNY   63  52  67 S9        30.05F
BLUEFIELD      PTSUNNY   63  52  67 VRB7      30.06F
$$

VAZ002-007-008-TNZ017-027-036-066-071-171700
...SOUTHWEST VIRGINIA/EAST TENNESSEE...

CITY           SKY/WX    TMP DP  RH WIND       PRES   REMARKS
WISE*          CLOUDY    63  59  88 E3        30.05F
JONESVILLE*    PTSUNNY   68  55  64 CALM      30.03F
ABINGDON*      MOSUNNY   70  58  66 SW5       30.02F
BRISTOL        MOSUNNY   71  56  58 CALM      30.00F
KNOXVILLE      MOSUNNY   70  57  63 N5        29.98F
OAK RIDGE      SUNNY     71  55  56 E5        30.01F
CROSSVILLE     MOSUNNY   64  51  62 CALM      30.05R
NASHVILLE      CLOUDY    64  57  78 N5        30.06S
$$

...KEY TO REMARKS...
VSB - VISIBILITY IN MILES
WCI - WIND CHILL INDEX
HX  - HEAT INDEX

$$


USA.gov is the U.S. government's official web portal to all federal, state and local government web resources and services.